ONEWEB-0351 (49215 NORAD) Tracking and Keplerian Element Data

This shows tracking and keplerian element data for the satellite.

Feedback or suggestion? Click here.




ElementValue
Catalog49215
NameONEWEB-0351
Epoch Orbit594
Epoch Day288.25002315
Epoch Year2021
RAAN317.4077
Inclination87.2146
Eccentricity0.0018954
Argument of Perigee173.2217
Mean Anonmoly136.0548
Mean Motion14.95006706
Decay Rate-0.01387218
L11 49215U 21083AF 21288.25002315 -.01387218 00000-0 -13793+0 0 9998
L22 49215 87.2146 317.4077 0018954 173.2217 136.0548 14.95006706 5943

Live tracking and technical data element details for ONEWEB-0351 (NORAD 49215). ONEWEB-0351 can be tracked NOW for your location showing map with azimuth and elevation plus other details from your city location.

Track the satellite on the map from your city or location and see movement details for azimuth, elevation, latitude, longitude, range, height, and movement on the map or in text.







IsCatalogInMostPopularTable: catalog: 49215, numindb: 14
Update: records affected: 1



GetName: 49215 ONEWEB-0351

Hit Count: updated at: Tue, 19 Oct 2021 08:27:52 GMT